Time,TemperatureF,DewpointF,PressureIn,WindDirection,WindDirectionDegrees,WindSpeedMPH,WindSpeedGustMPH,Humidity,HourlyPrecipIn,Conditions,Clouds,dailyrainin,SoftwareType,DateUTC
2013-08-23 00:02:00,80.9,64.0,28.59,ESE,112,0.0,0.0,57,0.00,,,0.00,Rainwise IP-100,2013-08-23 05:02:00,
2013-08-23 00:07:00,80.6,64.0,28.59,ESE,112,0.0,0.0,58,0.00,,,0.00,Rainwise IP-100,2013-08-23 05:07:00,
2013-08-23 00:12:00,80.5,65.0,28.59,ESE,112,0.0,1.0,59,0.00,,,0.00,Rainwise IP-100,2013-08-23 05:12:00,
2013-08-23 00:17:00,80.5,65.0,28.59,ESE,112,0.0,1.0,59,0.00,,,0.00,Rainwise IP-100,2013-08-23 05:17:00,
2013-08-23 00:22:00,80.3,64.0,28.59,ESE,112,0.0,0.0,59,0.00,,,0.00,Rainwise IP-100,2013-08-23 05:22:00,
2013-08-23 00:27:00,79.9,65.0,28.59,ESE,112,0.0,0.0,60,0.00,,,0.00,Rainwise IP-100,2013-08-23 05:27:00,
2013-08-23 00:32:00,79.6,64.0,28.59,ESE,112,0.0,0.0,60,0.00,,,0.00,Rainwise IP-100,2013-08-23 05:32:00,
2013-08-23 00:37:00,79.5,65.0,28.59,ESE,112,0.0,0.0,61,0.00,,,0.00,Rainwise IP-100,2013-08-23 05:37:00,
2013-08-23 00:42:00,79.6,65.0,28.59,ESE,112,0.0,1.0,61,0.00,,,0.00,Rainwise IP-100,2013-08-23 05:42:00,
2013-08-23 00:47:00,79.5,65.0,28.59,ESE,112,0.0,0.0,61,0.00,,,0.00,Rainwise IP-100,2013-08-23 05:47:00,
2013-08-23 00:52:00,79.1,64.0,28.59,ESE,112,0.0,0.0,61,0.00,,,0.00,Rainwise IP-100,2013-08-23 05:52:00,
2013-08-23 00:57:00,79.2,65.0,28.59,ESE,112,0.0,0.0,62,0.00,,,0.00,Rainwise IP-100,2013-08-23 05:57:00,
2013-08-23 01:02:00,79.5,65.0,28.59,ESE,112,0.0,1.0,62,0.00,,,0.00,Rainwise IP-100,2013-08-23 06:02:00,
2013-08-23 01:07:00,79.6,65.0,28.59,ESE,112,0.0,1.0,62,0.00,,,0.00,Rainwise IP-100,2013-08-23 06:07:00,
2013-08-23 01:12:00,79.7,65.0,28.59,ESE,112,1.4,1.4,62,0.00,,,0.00,Rainwise IP-100,2013-08-23 06:12:00,
2013-08-23 01:17:00,79.8,65.0,28.59,ESE,112,2.8,4.0,62,0.00,,,0.00,Rainwise IP-100,2013-08-23 06:17:00,
2013-08-23 01:22:00,80.0,66.0,28.59,ESE,112,1.6,4.0,62,0.00,,,0.00,Rainwise IP-100,2013-08-23 06:22:00,
2013-08-23 01:27:00,80.2,65.0,28.59,SSE,157,3.3,5.0,61,0.00,,,0.00,Rainwise IP-100,2013-08-23 06:27:00,
2013-08-23 01:32:00,80.5,66.0,28.59,SE,135,1.9,4.0,61,0.00,,,0.00,Rainwise IP-100,2013-08-23 06:32:00,
2013-08-23 01:37:00,80.5,66.0,28.59,SE,135,1.9,4.0,61,0.00,,,0.00,Rainwise IP-100,2013-08-23 06:37:00,
2013-08-23 01:42:00,80.3,65.0,28.58,SE,135,3.7,5.0,61,0.00,,,0.00,Rainwise IP-100,2013-08-23 06:42:00,
2013-08-23 01:47:00,80.2,65.0,28.58,ESE,112,2.3,5.0,61,0.00,,,0.00,Rainwise IP-100,2013-08-23 06:47:00,
2013-08-23 01:52:00,80.2,65.0,28.58,SE,135,1.2,6.0,61,0.00,,,0.00,Rainwise IP-100,2013-08-23 06:52:00,
2013-08-23 01:57:00,80.2,66.0,28.58,SSE,157,4.7,7.0,62,0.00,,,0.00,Rainwise IP-100,2013-08-23 06:57:00,
2013-08-23 02:02:00,80.0,66.0,28.58,SE,135,2.3,4.0,62,0.00,,,0.00,Rainwise IP-100,2013-08-23 07:02:00,
2013-08-23 02:07:00,79.8,65.0,28.58,ESE,112,0.0,4.0,62,0.00,,,0.00,Rainwise IP-100,2013-08-23 07:07:00,
2013-08-23 02:12:00,79.6,66.0,28.58,East,90,1.4,4.0,63,0.00,,,0.00,Rainwise IP-100,2013-08-23 07:12:00,
2013-08-23 02:17:00,79.4,66.0,28.58,East,90,0.0,4.0,63,0.00,,,0.00,Rainwise IP-100,2013-08-23 07:17:00,
2013-08-23 02:22:00,79.1,65.0,28.59,East,90,1.9,2.0,63,0.00,,,0.00,Rainwise IP-100,2013-08-23 07:22:00,
2013-08-23 02:27:00,78.8,65.0,28.58,East,90,1.9,3.0,64,0.00,,,0.00,Rainwise IP-100,2013-08-23 07:27:00,
2013-08-23 02:32:00,78.7,65.0,28.59,ESE,112,2.1,4.0,64,0.00,,,0.00,Rainwise IP-100,2013-08-23 07:32:00,
2013-08-23 02:37:00,78.6,66.0,28.58,SE,135,2.8,4.0,65,0.00,,,0.00,Rainwise IP-100,2013-08-23 07:37:00,
2013-08-23 02:42:00,78.5,66.0,28.58,SSE,157,1.2,3.0,65,0.00,,,0.00,Rainwise IP-100,2013-08-23 07:42:00,
2013-08-23 02:47:00,78.2,66.0,28.58,SE,135,0.0,2.0,66,0.00,,,0.00,Rainwise IP-100,2013-08-23 07:47:00,
2013-08-23 02:52:00,78.0,66.0,28.58,SE,135,1.9,3.0,66,0.00,,,0.00,Rainwise IP-100,2013-08-23 07:52:00,
2013-08-23 02:57:00,77.9,66.0,28.58,SE,135,1.6,3.0,67,0.00,,,0.00,Rainwise IP-100,2013-08-23 07:57:00,
2013-08-23 03:02:00,77.9,66.0,28.58,SE,135,1.9,4.0,67,0.00,,,0.00,Rainwise IP-100,2013-08-23 08:02:00,
2013-08-23 03:07:00,77.8,66.0,28.58,SE,135,1.2,4.0,67,0.00,,,0.00,Rainwise IP-100,2013-08-23 08:07:00,
2013-08-23 03:12:00,77.7,66.0,28.58,ESE,112,2.1,4.0,68,0.00,,,0.00,Rainwise IP-100,2013-08-23 08:12:00,
2013-08-23 03:17:00,77.6,66.0,28.58,SE,135,1.9,3.0,68,0.00,,,0.00,Rainwise IP-100,2013-08-23 08:17:00,
2013-08-23 03:22:00,77.4,66.0,28.58,ESE,112,2.8,3.0,68,0.00,,,0.00,Rainwise IP-100,2013-08-23 08:22:00,
2013-08-23 03:27:00,77.2,66.0,28.58,ESE,112,1.6,4.0,69,0.00,,,0.00,Rainwise IP-100,2013-08-23 08:27:00,
2013-08-23 03:32:00,77.0,66.0,28.58,SE,135,2.3,7.0,69,0.00,,,0.00,Rainwise IP-100,2013-08-23 08:32:00,
2013-08-23 03:37:00,77.0,66.0,28.58,SE,135,1.4,6.0,70,0.00,,,0.00,Rainwise IP-100,2013-08-23 08:37:00,
2013-08-23 03:42:00,77.0,66.0,28.59,SE,135,4.0,4.0,70,0.00,,,0.00,Rainwise IP-100,2013-08-23 08:42:00,
2013-08-23 03:47:00,76.9,66.0,28.59,SE,135,4.7,6.0,70,0.00,,,0.00,Rainwise IP-100,2013-08-23 08:47:00,
2013-08-23 03:52:00,76.7,66.0,28.58,ESE,112,3.3,5.0,71,0.00,,,0.00,Rainwise IP-100,2013-08-23 08:52:00,
2013-08-23 03:57:00,76.6,66.0,28.58,SE,135,2.6,5.0,71,0.00,,,0.00,Rainwise IP-100,2013-08-23 08:57:00,
2013-08-23 04:02:00,76.5,66.0,28.58,ESE,112,3.3,3.3,71,0.00,,,0.00,Rainwise IP-100,2013-08-23 09:02:00,
2013-08-23 04:07:00,76.3,66.0,28.58,ESE,112,1.4,4.0,72,0.00,,,0.00,Rainwise IP-100,2013-08-23 09:07:00,
2013-08-23 04:12:00,76.2,66.0,28.59,ESE,112,1.6,2.0,72,0.00,,,0.00,Rainwise IP-100,2013-08-23 09:12:00,
2013-08-23 04:17:00,76.1,66.0,28.59,ESE,112,1.4,2.0,72,0.00,,,0.00,Rainwise IP-100,2013-08-23 09:17:00,
2013-08-23 04:22:00,75.9,66.0,28.59,ESE,112,1.2,1.2,73,0.00,,,0.00,Rainwise IP-100,2013-08-23 09:22:00,
2013-08-23 04:27:00,75.7,66.0,28.59,ESE,112,0.0,1.0,73,0.00,,,0.00,Rainwise IP-100,2013-08-23 09:27:00,
2013-08-23 04:32:00,75.6,66.0,28.59,ESE,112,0.0,0.0,73,0.00,,,0.00,Rainwise IP-100,2013-08-23 09:32:00,
2013-08-23 04:37:00,75.3,66.0,28.59,ESE,112,0.0,0.0,74,0.00,,,0.00,Rainwise IP-100,2013-08-23 09:37:00,
2013-08-23 04:42:00,75.2,66.0,28.59,ESE,112,0.0,0.0,74,0.00,,,0.00,Rainwise IP-100,2013-08-23 09:42:00,
2013-08-23 04:47:00,74.9,66.0,28.58,ESE,112,0.0,0.0,75,0.00,,,0.00,Rainwise IP-100,2013-08-23 09:47:00,
2013-08-23 04:52:00,74.6,66.0,28.58,ESE,112,0.0,0.0,75,0.00,,,0.00,Rainwise IP-100,2013-08-23 09:52:00,
2013-08-23 04:57:00,74.3,66.0,28.59,ESE,112,0.0,0.0,76,0.00,,,0.00,Rainwise IP-100,2013-08-23 09:57:00,
2013-08-23 05:02:00,74.1,66.0,28.59,ESE,112,0.0,0.0,76,0.00,,,0.00,Rainwise IP-100,2013-08-23 10:02:00,
2013-08-23 05:07:00,74.1,66.0,28.59,ESE,112,0.0,0.0,77,0.00,,,0.00,Rainwise IP-100,2013-08-23 10:07:00,
2013-08-23 05:12:00,74.0,66.0,28.59,ESE,112,0.0,0.0,78,0.00,,,0.00,Rainwise IP-100,2013-08-23 10:12:00,
2013-08-23 05:17:00,73.7,66.0,28.59,ESE,112,0.0,0.0,77,0.00,,,0.00,Rainwise IP-100,2013-08-23 10:17:00,
2013-08-23 05:22:00,73.4,66.0,28.59,ESE,112,0.0,0.0,78,0.00,,,0.00,Rainwise IP-100,2013-08-23 10:22:00,
2013-08-23 05:27:00,73.3,66.0,28.59,ESE,112,0.0,0.0,79,0.00,,,0.00,Rainwise IP-100,2013-08-23 10:27:00,
2013-08-23 05:32:00,73.1,66.0,28.59,ESE,112,0.0,0.0,79,0.00,,,0.00,Rainwise IP-100,2013-08-23 10:32:00,
2013-08-23 05:37:00,73.0,66.0,28.59,ESE,112,0.0,0.0,79,0.00,,,0.00,Rainwise IP-100,2013-08-23 10:37:00,
2013-08-23 05:42:00,72.8,66.0,28.58,ESE,112,0.0,0.0,80,0.00,,,0.00,Rainwise IP-100,2013-08-23 10:42:00,
2013-08-23 05:47:00,72.7,66.0,28.58,ESE,112,0.0,0.0,80,0.00,,,0.00,Rainwise IP-100,2013-08-23 10:47:00,
2013-08-23 05:52:00,72.5,66.0,28.59,ESE,112,0.0,0.0,80,0.00,,,0.00,Rainwise IP-100,2013-08-23 10:52:00,
2013-08-23 05:57:00,72.3,66.0,28.58,ESE,112,0.0,0.0,80,0.00,,,0.00,Rainwise IP-100,2013-08-23 10:57:00,
2013-08-23 06:02:00,72.1,66.0,28.59,ESE,112,0.0,0.0,81,0.00,,,0.00,Rainwise IP-100,2013-08-23 11:02:00,
2013-08-23 06:07:00,71.9,66.0,28.59,ESE,112,0.0,0.0,81,0.00,,,0.00,Rainwise IP-100,2013-08-23 11:07:00,
2013-08-23 06:12:00,71.8,66.0,28.59,ESE,112,0.0,0.0,82,0.00,,,0.00,Rainwise IP-100,2013-08-23 11:12:00,
2013-08-23 06:17:00,71.6,66.0,28.59,ESE,112,0.0,0.0,82,0.00,,,0.00,Rainwise IP-100,2013-08-23 11:17:00,
2013-08-23 06:22:00,71.7,66.0,28.60,ESE,112,0.0,0.0,83,0.00,,,0.00,Rainwise IP-100,2013-08-23 11:22:00,
2013-08-23 06:27:00,72.1,66.0,28.60,ESE,112,0.0,0.0,83,0.00,,,0.00,Rainwise IP-100,2013-08-23 11:27:00,
2013-08-23 06:32:00,72.4,66.0,28.60,ENE,67,1.6,3.0,83,0.00,,,0.00,Rainwise IP-100,2013-08-23 11:32:00,
2013-08-23 06:37:00,72.5,67.0,28.59,ENE,67,0.0,2.0,83,0.00,,,0.00,Rainwise IP-100,2013-08-23 11:37:00,
2013-08-23 06:42:00,72.3,66.0,28.60,ENE,67,0.0,0.0,83,0.00,,,0.00,Rainwise IP-100,2013-08-23 11:42:00,
2013-08-23 06:47:00,72.0,66.0,28.60,ENE,67,0.0,0.0,83,0.00,,,0.00,Rainwise IP-100,2013-08-23 11:47:00,
2013-08-23 06:52:00,72.0,66.0,28.60,ENE,67,0.0,1.0,83,0.00,,,0.00,Rainwise IP-100,2013-08-23 11:52:00,
2013-08-23 06:57:00,72.0,66.0,28.60,ENE,67,0.0,1.0,83,0.00,,,0.00,Rainwise IP-100,2013-08-23 11:57:00,
2013-08-23 07:02:00,71.9,66.0,28.60,ENE,67,0.0,0.0,84,0.00,,,0.00,Rainwise IP-100,2013-08-23 12:02:00,
2013-08-23 07:07:00,71.7,66.0,28.61,ENE,67,0.0,1.0,84,0.00,,,0.00,Rainwise IP-100,2013-08-23 12:07:00,
2013-08-23 07:12:00,71.6,66.0,28.61,ENE,67,0.0,0.0,84,0.00,,,0.00,Rainwise IP-100,2013-08-23 12:12:00,
2013-08-23 07:17:00,71.8,66.0,28.61,ENE,67,0.0,2.0,84,0.00,,,0.00,Rainwise IP-100,2013-08-23 12:17:00,
2013-08-23 07:22:00,72.0,67.0,28.61,ENE,67,1.6,2.0,85,0.00,,,0.00,Rainwise IP-100,2013-08-23 12:22:00,
2013-08-23 07:27:00,72.2,67.0,28.61,ENE,67,0.0,2.0,84,0.00,,,0.00,Rainwise IP-100,2013-08-23 12:27:00,
2013-08-23 07:32:00,72.5,67.0,28.61,ENE,67,1.6,0.0,84,0.00,,,0.00,Rainwise IP-100,2013-08-23 12:32:00,
2013-08-23 07:37:00,72.9,68.0,28.62,ENE,67,0.0,3.0,84,0.00,,,0.00,Rainwise IP-100,2013-08-23 12:37:00,
2013-08-23 07:42:00,73.6,68.0,28.62,ENE,67,1.2,2.0,83,0.00,,,0.00,Rainwise IP-100,2013-08-23 12:42:00,
2013-08-23 07:47:00,74.3,69.0,28.62,ESE,112,2.3,4.0,82,0.00,,,0.00,Rainwise IP-100,2013-08-23 12:47:00,
2013-08-23 07:52:00,74.8,68.0,28.62,East,90,1.4,3.0,81,0.00,,,0.00,Rainwise IP-100,2013-08-23 12:52:00,
2013-08-23 07:57:00,75.3,69.0,28.62,East,90,2.3,3.0,81,0.00,,,0.00,Rainwise IP-100,2013-08-23 12:57:00,
2013-08-23 08:02:00,75.6,69.0,28.62,ESE,112,0.0,3.0,80,0.00,,,0.00,Rainwise IP-100,2013-08-23 13:02:00,
2013-08-23 08:07:00,76.0,69.0,28.62,SE,135,2.8,3.0,79,0.00,,,0.00,Rainwise IP-100,2013-08-23 13:07:00,
2013-08-23 08:12:00,76.3,69.0,28.62,SSE,157,4.2,5.0,78,0.00,,,0.00,Rainwise IP-100,2013-08-23 13:12:00,
2013-08-23 08:17:00,76.6,69.0,28.62,SE,135,0.0,6.0,78,0.00,,,0.00,Rainwise IP-100,2013-08-23 13:17:00,
2013-08-23 08:22:00,77.1,69.0,28.62,SE,135,3.7,5.0,77,0.00,,,0.00,Rainwise IP-100,2013-08-23 13:22:00,
2013-08-23 08:27:00,77.7,69.0,28.62,SE,135,4.4,5.0,76,0.00,,,0.00,Rainwise IP-100,2013-08-23 13:27:00,
2013-08-23 08:32:00,78.0,69.0,28.62,ESE,112,3.7,5.0,75,0.00,,,0.00,Rainwise IP-100,2013-08-23 13:32:00,
2013-08-23 08:37:00,78.4,70.0,28.63,South,180,2.6,5.0,75,0.00,,,0.00,Rainwise IP-100,2013-08-23 13:37:00,
2013-08-23 08:42:00,79.1,69.0,28.63,SSE,157,3.0,5.0,73,0.00,,,0.00,Rainwise IP-100,2013-08-23 13:42:00,
2013-08-23 08:47:00,79.6,69.0,28.62,SSE,157,3.7,6.0,72,0.00,,,0.00,Rainwise IP-100,2013-08-23 13:47:00,
2013-08-23 08:52:00,79.5,69.0,28.63,ESE,112,4.4,5.0,72,0.00,,,0.00,Rainwise IP-100,2013-08-23 13:52:00,
2013-08-23 08:57:00,79.5,69.0,28.62,SSW,202,3.5,5.0,72,0.00,,,0.00,Rainwise IP-100,2013-08-23 13:57:00,
2013-08-23 09:02:00,80.3,70.0,28.63,South,180,5.4,6.0,71,0.00,,,0.00,Rainwise IP-100,2013-08-23 14:02:00,
2013-08-23 09:07:00,80.9,70.0,28.62,SSE,157,3.5,6.0,70,0.00,,,0.00,Rainwise IP-100,2013-08-23 14:07:00,
2013-08-23 09:12:00,81.2,70.0,28.62,SSE,157,4.2,6.0,69,0.00,,,0.00,Rainwise IP-100,2013-08-23 14:12:00,
2013-08-23 09:17:00,81.2,69.0,28.63,SE,135,5.4,9.0,68,0.00,,,0.00,Rainwise IP-100,2013-08-23 14:17:00,
2013-08-23 09:22:00,81.7,70.0,28.63,SSE,157,2.3,8.0,68,0.00,,,0.00,Rainwise IP-100,2013-08-23 14:22:00,
2013-08-23 09:27:00,82.3,70.0,28.62,WSW,247,3.5,8.0,67,0.00,,,0.00,Rainwise IP-100,2013-08-23 14:27:00,
2013-08-23 09:32:00,82.4,70.0,28.62,ESE,112,4.4,7.0,66,0.00,,,0.00,Rainwise IP-100,2013-08-23 14:32:00,
2013-08-23 09:37:00,82.5,70.0,28.62,SSE,157,4.4,8.0,66,0.00,,,0.00,Rainwise IP-100,2013-08-23 14:37:00,
2013-08-23 09:42:00,82.5,69.0,28.63,SSE,157,4.7,9.0,65,0.00,,,0.00,Rainwise IP-100,2013-08-23 14:42:00,
2013-08-23 09:47:00,83.4,70.0,28.63,SE,135,2.1,8.0,64,0.00,,,0.00,Rainwise IP-100,2013-08-23 14:47:00,
2013-08-23 09:52:00,84.0,70.0,28.63,SSW,202,3.5,7.0,63,0.00,,,0.00,Rainwise IP-100,2013-08-23 14:52:00,
2013-08-23 09:57:00,84.4,70.0,28.63,SW,225,4.0,6.0,62,0.00,,,0.00,Rainwise IP-100,2013-08-23 14:57:00,
2013-08-23 10:02:00,85.0,70.0,28.62,SSW,202,1.4,7.0,61,0.00,,,0.00,Rainwise IP-100,2013-08-23 15:02:00,
2013-08-23 10:07:00,85.4,70.0,28.63,SSE,157,2.8,9.0,60,0.00,,,0.00,Rainwise IP-100,2013-08-23 15:07:00,
2013-08-23 10:12:00,85.5,69.0,28.63,SW,225,3.5,10.0,59,0.00,,,0.00,Rainwise IP-100,2013-08-23 15:12:00,
2013-08-23 10:17:00,85.5,69.0,28.63,SW,225,3.7,9.0,59,0.00,,,0.00,Rainwise IP-100,2013-08-23 15:17:00,
2013-08-23 10:22:00,85.7,69.0,28.63,SW,225,3.0,7.0,59,0.00,,,0.00,Rainwise IP-100,2013-08-23 15:22:00,
2013-08-23 10:27:00,86.2,70.0,28.63,SSE,157,4.2,7.0,59,0.00,,,0.00,Rainwise IP-100,2013-08-23 15:27:00,
2013-08-23 10:32:00,86.4,70.0,28.63,WSW,247,2.8,6.0,58,0.00,,,0.00,Rainwise IP-100,2013-08-23 15:32:00,
2013-08-23 10:37:00,86.0,69.0,28.64,WSW,247,1.6,7.0,57,0.00,,,0.00,Rainwise IP-100,2013-08-23 15:37:00,
2013-08-23 10:42:00,86.7,69.0,28.63,SSE,157,4.2,7.0,57,0.00,,,0.00,Rainwise IP-100,2013-08-23 15:42:00,
2013-08-23 10:47:00,87.3,69.0,28.63,ESE,112,1.4,7.0,56,0.00,,,0.00,Rainwise IP-100,2013-08-23 15:47:00,
2013-08-23 10:52:00,87.5,70.0,28.63,South,180,6.5,7.0,56,0.00,,,0.00,Rainwise IP-100,2013-08-23 15:52:00,
2013-08-23 10:57:00,88.0,70.0,28.63,North,360,0.0,8.0,55,0.00,,,0.00,Rainwise IP-100,2013-08-23 15:57:00,
2013-08-23 11:02:00,88.6,69.0,28.63,SSE,157,5.6,7.0,54,0.00,,,0.00,Rainwise IP-100,2013-08-23 16:02:00,
2013-08-23 11:07:00,88.9,69.0,28.63,SSW,202,2.8,7.0,53,0.00,,,0.00,Rainwise IP-100,2013-08-23 16:07:00,
2013-08-23 11:12:00,88.9,69.0,28.63,ESE,112,4.0,7.0,52,0.00,,,0.00,Rainwise IP-100,2013-08-23 16:12:00,
2013-08-23 11:17:00,88.6,69.0,28.63,SSE,157,0.0,7.0,52,0.00,,,0.00,Rainwise IP-100,2013-08-23 16:17:00,
2013-08-23 11:22:00,88.6,69.0,28.62,ESE,112,2.3,5.0,52,0.00,,,0.00,Rainwise IP-100,2013-08-23 16:22:00,
2013-08-23 11:27:00,88.8,68.0,28.62,ENE,67,2.3,8.0,51,0.00,,,0.00,Rainwise IP-100,2013-08-23 16:27:00,
2013-08-23 11:32:00,88.4,68.0,28.62,NW,315,1.9,6.0,51,0.00,,,0.00,Rainwise IP-100,2013-08-23 16:32:00,
2013-08-23 11:37:00,89.1,68.0,28.62,ESE,112,2.6,8.0,51,0.00,,,0.00,Rainwise IP-100,2013-08-23 16:37:00,
2013-08-23 11:42:00,89.4,68.0,28.62,East,90,4.4,6.0,50,0.00,,,0.00,Rainwise IP-100,2013-08-23 16:42:00,
2013-08-23 11:47:00,89.6,68.0,28.62,SSW,202,2.6,6.0,50,0.00,,,0.00,Rainwise IP-100,2013-08-23 16:47:00,
2013-08-23 11:52:00,91.3,69.0,28.62,SSE,157,3.7,9.0,48,0.00,,,0.00,Rainwise IP-100,2013-08-23 16:52:00,
2013-08-23 11:57:00,91.5,68.0,28.62,SE,135,6.3,9.0,47,0.00,,,0.00,Rainwise IP-100,2013-08-23 16:57:00,
2013-08-23 12:02:00,91.1,67.0,28.62,SSE,157,2.8,9.0,46,0.00,,,0.00,Rainwise IP-100,2013-08-23 17:02:00,
2013-08-23 12:07:00,90.2,66.0,28.61,ESE,112,1.6,7.0,46,0.00,,,0.00,Rainwise IP-100,2013-08-23 17:07:00,
2013-08-23 12:12:00,90.4,67.0,28.61,SSE,157,4.9,9.0,47,0.00,,,0.00,Rainwise IP-100,2013-08-23 17:12:00,
2013-08-23 12:17:00,91.5,68.0,28.61,SSE,157,3.0,7.0,46,0.00,,,0.00,Rainwise IP-100,2013-08-23 17:17:00,
2013-08-23 12:22:00,90.5,67.0,28.61,NE,45,5.1,5.1,46,0.00,,,0.00,Rainwise IP-100,2013-08-23 17:22:00,
2013-08-23 12:27:00,89.7,66.0,28.61,NE,45,4.4,6.0,47,0.00,,,0.00,Rainwise IP-100,2013-08-23 17:27:00,
2013-08-23 12:32:00,90.7,68.0,28.61,ESE,112,7.9,13.0,47,0.00,,,0.00,Rainwise IP-100,2013-08-23 17:32:00,
2013-08-23 12:37:00,91.1,67.0,28.61,SSW,202,2.3,9.0,46,0.00,,,0.00,Rainwise IP-100,2013-08-23 17:37:00,
2013-08-23 12:42:00,91.3,67.0,28.61,SE,135,5.8,12.0,45,0.00,,,0.00,Rainwise IP-100,2013-08-23 17:42:00,
2013-08-23 12:47:00,91.6,66.0,28.61,ESE,112,7.9,10.0,44,0.00,,,0.00,Rainwise IP-100,2013-08-23 17:47:00,
2013-08-23 12:52:00,90.9,66.0,28.60,ESE,112,6.3,9.0,45,0.00,,,0.00,Rainwise IP-100,2013-08-23 17:52:00,
2013-08-23 12:57:00,90.4,66.0,28.60,South,180,0.0,7.0,46,0.00,,,0.00,Rainwise IP-100,2013-08-23 17:57:00,
2013-08-23 13:02:00,91.3,67.0,28.60,WSW,247,0.0,5.0,45,0.00,,,0.00,Rainwise IP-100,2013-08-23 18:02:00,
2013-08-23 13:07:00,92.2,67.0,28.60,SSE,157,3.3,11.0,44,0.00,,,0.00,Rainwise IP-100,2013-08-23 18:07:00,
2013-08-23 13:12:00,92.2,67.0,28.60,SSW,202,3.7,9.0,44,0.00,,,0.00,Rainwise IP-100,2013-08-23 18:12:00,
2013-08-23 13:17:00,91.8,67.0,28.60,SSW,202,6.8,8.0,45,0.00,,,0.00,Rainwise IP-100,2013-08-23 18:17:00,
2013-08-23 13:22:00,92.2,67.0,28.59,SSE,157,6.3,8.0,45,0.00,,,0.00,Rainwise IP-100,2013-08-23 18:22:00,
2013-08-23 13:27:00,92.4,67.0,28.59,SSE,157,4.9,7.0,44,0.00,,,0.00,Rainwise IP-100,2013-08-23 18:27:00,
2013-08-23 13:32:00,92.0,66.0,28.59,ENE,67,11.4,11.4,43,0.00,,,0.00,Rainwise IP-100,2013-08-23 18:32:00,
2013-08-23 13:37:00,92.0,66.0,28.59,ESE,112,2.8,13.0,43,0.00,,,0.00,Rainwise IP-100,2013-08-23 18:37:00,
2013-08-23 13:42:00,91.7,66.0,28.58,SSE,157,6.5,10.0,43,0.00,,,0.00,Rainwise IP-100,2013-08-23 18:42:00,
2013-08-23 13:47:00,91.6,66.0,28.58,SE,135,5.4,11.0,44,0.00,,,0.00,Rainwise IP-100,2013-08-23 18:47:00,
2013-08-23 13:52:00,92.1,66.0,28.58,ESE,112,6.5,10.0,43,0.00,,,0.00,Rainwise IP-100,2013-08-23 18:52:00,
2013-08-23 13:57:00,92.9,66.0,28.58,ESE,112,11.0,11.0,42,0.00,,,0.00,Rainwise IP-100,2013-08-23 18:57:00,
2013-08-23 14:02:00,92.9,66.0,28.58,SSE,157,7.5,14.0,41,0.00,,,0.00,Rainwise IP-100,2013-08-23 19:02:00,
2013-08-23 14:07:00,92.6,65.0,28.58,ENE,67,2.6,10.0,41,0.00,,,0.00,Rainwise IP-100,2013-08-23 19:07:00,
2013-08-23 14:12:00,92.1,65.0,28.57,SE,135,7.0,11.0,42,0.00,,,0.00,Rainwise IP-100,2013-08-23 19:12:00,
2013-08-23 14:17:00,91.0,65.0,28.57,ENE,67,5.6,10.0,43,0.00,,,0.00,Rainwise IP-100,2013-08-23 19:17:00,
2013-08-23 14:22:00,90.4,66.0,28.57,SSE,157,4.9,7.0,45,0.00,,,0.00,Rainwise IP-100,2013-08-23 19:22:00,
2013-08-23 14:27:00,90.6,66.0,28.57,SSE,157,4.9,10.0,45,0.00,,,0.00,Rainwise IP-100,2013-08-23 19:27:00,
2013-08-23 14:32:00,91.4,66.0,28.57,SSE,157,6.5,9.0,44,0.00,,,0.00,Rainwise IP-100,2013-08-23 19:32:00,
2013-08-23 14:37:00,91.7,66.0,28.57,SSE,157,1.6,7.0,43,0.00,,,0.00,Rainwise IP-100,2013-08-23 19:37:00,
2013-08-23 14:42:00,91.5,66.0,28.56,SE,135,3.0,9.0,43,0.00,,,0.00,Rainwise IP-100,2013-08-23 19:42:00,
2013-08-23 14:47:00,91.5,65.0,28.56,SSW,202,6.3,12.0,42,0.00,,,0.00,Rainwise IP-100,2013-08-23 19:47:00,
2013-08-23 14:52:00,91.8,65.0,28.56,SSE,157,5.4,15.0,41,0.00,,,0.00,Rainwise IP-100,2013-08-23 19:52:00,
2013-08-23 14:57:00,93.0,65.0,28.55,SE,135,4.9,10.0,40,0.00,,,0.00,Rainwise IP-100,2013-08-23 19:57:00,
2013-08-23 15:02:00,94.2,65.0,28.55,ESE,112,4.0,9.0,39,0.00,,,0.00,Rainwise IP-100,2013-08-23 20:02:00,
2013-08-23 15:07:00,93.8,64.0,28.55,ESE,112,3.3,11.0,38,0.00,,,0.00,Rainwise IP-100,2013-08-23 20:07:00,
2013-08-23 15:12:00,93.1,63.0,28.55,NE,45,3.5,10.0,38,0.00,,,0.00,Rainwise IP-100,2013-08-23 20:12:00,
2013-08-23 15:17:00,93.0,65.0,28.56,NNE,22,4.2,9.0,40,0.00,,,0.00,Rainwise IP-100,2013-08-23 20:17:00,
2013-08-23 15:22:00,91.8,65.0,28.56,NNE,22,2.8,4.0,42,0.00,,,0.00,Rainwise IP-100,2013-08-23 20:22:00,
2013-08-23 15:27:00,90.6,66.0,28.55,NNE,22,2.6,8.0,44,0.00,,,0.00,Rainwise IP-100,2013-08-23 20:27:00,
2013-08-23 15:32:00,90.3,66.0,28.54,North,360,3.3,7.0,45,0.00,,,0.00,Rainwise IP-100,2013-08-23 20:32:00,
2013-08-23 15:37:00,90.4,66.0,28.54,NNE,22,6.1,7.0,45,0.00,,,0.00,Rainwise IP-100,2013-08-23 20:37:00,
2013-08-23 15:42:00,90.4,66.0,28.54,North,360,3.5,8.0,45,0.00,,,0.00,Rainwise IP-100,2013-08-23 20:42:00,
2013-08-23 15:47:00,90.3,66.0,28.54,NNW,337,3.7,5.0,46,0.00,,,0.00,Rainwise IP-100,2013-08-23 20:47:00,
2013-08-23 15:52:00,90.2,67.0,28.54,NNE,22,5.1,6.0,47,0.00,,,0.00,Rainwise IP-100,2013-08-23 20:52:00,
2013-08-23 15:57:00,89.1,68.0,28.53,NNE,22,5.6,10.0,50,0.00,,,0.00,Rainwise IP-100,2013-08-23 20:57:00,
2013-08-23 16:02:00,87.0,68.0,28.53,NNE,22,5.4,8.0,54,0.00,,,0.00,Rainwise IP-100,2013-08-23 21:02:00,
2013-08-23 16:07:00,85.2,69.0,28.54,North,360,4.0,9.0,59,0.00,,,0.00,Rainwise IP-100,2013-08-23 21:07:00,
2013-08-23 16:12:00,84.0,69.0,28.54,NNW,337,1.9,7.0,62,0.00,,,0.00,Rainwise IP-100,2013-08-23 21:12:00,
2013-08-23 16:17:00,83.5,70.0,28.54,NNE,22,4.4,4.4,65,0.00,,,0.00,Rainwise IP-100,2013-08-23 21:17:00,
2013-08-23 16:22:00,83.5,71.0,28.53,NNW,337,4.0,7.0,66,0.00,,,0.00,Rainwise IP-100,2013-08-23 21:22:00,
2013-08-23 16:27:00,83.9,71.0,28.53,NNW,337,6.1,7.0,65,0.00,,,0.00,Rainwise IP-100,2013-08-23 21:27:00,
2013-08-23 16:32:00,84.4,70.0,28.53,NNW,337,0.0,6.0,63,0.00,,,0.00,Rainwise IP-100,2013-08-23 21:32:00,
2013-08-23 16:37:00,85.1,70.0,28.53,NNW,337,1.2,4.0,61,0.00,,,0.00,Rainwise IP-100,2013-08-23 21:37:00,
2013-08-23 16:42:00,85.7,70.0,28.53,NW,315,1.6,4.0,60,0.00,,,0.00,Rainwise IP-100,2013-08-23 21:42:00,
2013-08-23 16:47:00,86.1,70.0,28.53,NW,315,5.8,5.8,59,0.00,,,0.00,Rainwise IP-100,2013-08-23 21:47:00,
2013-08-23 16:52:00,86.4,70.0,28.52,NW,315,4.4,7.0,58,0.00,,,0.00,Rainwise IP-100,2013-08-23 21:52:00,
2013-08-23 16:57:00,86.3,69.0,28.52,NW,315,3.0,6.0,58,0.00,,,0.00,Rainwise IP-100,2013-08-23 21:57:00,
2013-08-23 17:02:00,86.4,69.0,28.52,NW,315,4.2,5.0,57,0.00,,,0.00,Rainwise IP-100,2013-08-23 22:02:00,
2013-08-23 17:07:00,87.0,69.0,28.52,NNW,337,2.3,4.0,55,0.00,,,0.00,Rainwise IP-100,2013-08-23 22:07:00,
2013-08-23 17:12:00,87.7,69.0,28.52,NNE,22,2.6,4.0,54,0.00,,,0.00,Rainwise IP-100,2013-08-23 22:12:00,
2013-08-23 17:17:00,88.5,69.0,28.51,North,360,3.0,4.0,53,0.00,,,0.00,Rainwise IP-100,2013-08-23 22:17:00,
2013-08-23 17:22:00,90.1,69.0,28.51,NNW,337,2.8,5.0,50,0.00,,,0.00,Rainwise IP-100,2013-08-23 22:22:00,
2013-08-23 17:27:00,91.5,68.0,28.51,SE,135,2.6,7.0,46,0.00,,,0.00,Rainwise IP-100,2013-08-23 22:27:00,
2013-08-23 17:32:00,91.9,66.0,28.51,ENE,67,8.6,8.6,43,0.00,,,0.00,Rainwise IP-100,2013-08-23 22:32:00,
2013-08-23 17:37:00,91.6,64.0,28.51,East,90,2.3,10.0,41,0.00,,,0.00,Rainwise IP-100,2013-08-23 22:37:00,
2013-08-23 17:42:00,91.5,65.0,28.51,ESE,112,2.6,7.0,42,0.00,,,0.00,Rainwise IP-100,2013-08-23 22:42:00,
2013-08-23 17:47:00,91.9,65.0,28.51,SSW,202,4.4,5.0,41,0.00,,,0.00,Rainwise IP-100,2013-08-23 22:47:00,
2013-08-23 17:52:00,92.2,64.0,28.51,ESE,112,2.6,7.0,40,0.00,,,0.00,Rainwise IP-100,2013-08-23 22:52:00,
2013-08-23 17:57:00,92.2,63.0,28.51,ESE,112,2.3,10.0,38,0.00,,,0.00,Rainwise IP-100,2013-08-23 22:57:00,
2013-08-23 18:02:00,92.1,62.0,28.51,SE,135,4.4,10.0,37,0.00,,,0.00,Rainwise IP-100,2013-08-23 23:02:00,
2013-08-23 18:07:00,92.1,62.0,28.51,East,90,5.1,10.0,37,0.00,,,0.00,Rainwise IP-100,2013-08-23 23:07:00,
2013-08-23 18:12:00,91.9,62.0,28.52,East,90,7.5,11.0,38,0.00,,,0.00,Rainwise IP-100,2013-08-23 23:12:00,
2013-08-23 18:17:00,91.6,63.0,28.52,ESE,112,1.6,9.0,39,0.00,,,0.00,Rainwise IP-100,2013-08-23 23:17:00,
2013-08-23 18:22:00,91.5,63.0,28.52,ENE,67,2.8,8.0,39,0.00,,,0.00,Rainwise IP-100,2013-08-23 23:22:00,
2013-08-23 18:27:00,91.5,62.0,28.52,SSE,157,4.9,7.0,38,0.00,,,0.00,Rainwise IP-100,2013-08-23 23:27:00,
2013-08-23 18:32:00,91.4,61.0,28.52,ESE,112,3.3,11.0,37,0.00,,,0.00,Rainwise IP-100,2013-08-23 23:32:00,
2013-08-23 18:37:00,91.3,61.0,28.52,East,90,2.3,7.0,37,0.00,,,0.00,Rainwise IP-100,2013-08-23 23:37:00,
2013-08-23 18:42:00,91.2,62.0,28.52,East,90,4.2,8.0,38,0.00,,,0.00,Rainwise IP-100,2013-08-23 23:42:00,
2013-08-23 18:47:00,91.1,62.0,28.52,SE,135,0.0,7.0,38,0.00,,,0.00,Rainwise IP-100,2013-08-23 23:47:00,
2013-08-23 18:52:00,91.0,62.0,28.52,East,90,3.5,7.0,39,0.00,,,0.00,Rainwise IP-100,2013-08-23 23:52:00,
2013-08-23 18:57:00,91.0,62.0,28.52,SE,135,6.8,6.8,39,0.00,,,0.00,Rainwise IP-100,2013-08-23 23:57:00,
2013-08-23 19:02:00,90.9,62.0,28.52,ENE,67,4.4,6.0,39,0.00,,,0.00,Rainwise IP-100,2013-08-24 00:02:00,
2013-08-23 19:07:00,90.9,62.0,28.52,East,90,0.0,5.0,39,0.00,,,0.00,Rainwise IP-100,2013-08-24 00:07:00,
2013-08-23 19:12:00,90.8,62.0,28.52,ESE,112,2.8,6.0,39,0.00,,,0.00,Rainwise IP-100,2013-08-24 00:12:00,
2013-08-23 19:17:00,90.6,62.0,28.52,SE,135,1.9,4.0,39,0.00,,,0.00,Rainwise IP-100,2013-08-24 00:17:00,
2013-08-23 19:22:00,90.3,62.0,28.52,ESE,112,2.8,3.0,40,0.00,,,0.00,Rainwise IP-100,2013-08-24 00:22:00,
2013-08-23 19:27:00,90.0,62.0,28.52,East,90,2.6,4.0,40,0.00,,,0.00,Rainwise IP-100,2013-08-24 00:27:00,
2013-08-23 19:32:00,89.7,62.0,28.52,East,90,2.6,5.0,40,0.00,,,0.00,Rainwise IP-100,2013-08-24 00:32:00,
2013-08-23 19:37:00,89.5,62.0,28.52,ESE,112,1.4,4.0,40,0.00,,,0.00,Rainwise IP-100,2013-08-24 00:37:00,
2013-08-23 19:42:00,89.2,62.0,28.52,East,90,1.6,4.0,40,0.00,,,0.00,Rainwise IP-100,2013-08-24 00:42:00,
2013-08-23 19:47:00,88.8,62.0,28.51,East,90,1.4,2.0,41,0.00,,,0.00,Rainwise IP-100,2013-08-24 00:47:00,
2013-08-23 19:52:00,88.3,61.0,28.52,East,90,1.4,2.0,41,0.00,,,0.00,Rainwise IP-100,2013-08-24 00:52:00,
2013-08-23 19:57:00,87.6,63.0,28.52,ENE,67,1.9,3.0,44,0.00,,,0.00,Rainwise IP-100,2013-08-24 00:57:00,
2013-08-23 20:02:00,86.6,64.0,28.52,ENE,67,1.6,3.0,47,0.00,,,0.00,Rainwise IP-100,2013-08-24 01:02:00,
2013-08-23 20:07:00,85.8,64.0,28.52,ENE,67,1.4,2.0,49,0.00,,,0.00,Rainwise IP-100,2013-08-24 01:07:00,
2013-08-23 20:12:00,85.5,65.0,28.52,ENE,67,2.1,3.0,50,0.00,,,0.00,Rainwise IP-100,2013-08-24 01:12:00,
2013-08-23 20:17:00,85.3,65.0,28.52,ENE,67,0.0,2.0,51,0.00,,,0.00,Rainwise IP-100,2013-08-24 01:17:00,
2013-08-23 20:22:00,85.1,65.0,28.52,ENE,67,0.0,0.0,51,0.00,,,0.00,Rainwise IP-100,2013-08-24 01:22:00,
2013-08-23 20:27:00,84.7,64.0,28.52,ENE,67,0.0,0.0,51,0.00,,,0.00,Rainwise IP-100,2013-08-24 01:27:00,
2013-08-23 20:32:00,84.0,64.0,28.52,ENE,67,1.9,2.0,52,0.00,,,0.00,Rainwise IP-100,2013-08-24 01:32:00,
2013-08-23 20:37:00,83.9,65.0,28.52,ENE,67,0.0,2.0,53,0.00,,,0.00,Rainwise IP-100,2013-08-24 01:37:00,
2013-08-23 20:42:00,84.1,64.0,28.53,ENE,67,1.6,3.0,52,0.00,,,0.00,Rainwise IP-100,2013-08-24 01:42:00,
2013-08-23 20:47:00,84.4,64.0,28.53,ENE,67,1.9,3.0,51,0.00,,,0.00,Rainwise IP-100,2013-08-24 01:47:00,
2013-08-23 20:52:00,84.6,64.0,28.53,ENE,67,0.0,2.0,50,0.00,,,0.00,Rainwise IP-100,2013-08-24 01:52:00,
2013-08-23 20:57:00,84.4,64.0,28.53,ENE,67,0.0,2.0,50,0.00,,,0.00,Rainwise IP-100,2013-08-24 01:57:00,
2013-08-23 21:02:00,84.1,63.0,28.54,ENE,67,0.0,0.0,50,0.00,,,0.00,Rainwise IP-100,2013-08-24 02:02:00,
2013-08-23 21:07:00,83.9,63.0,28.54,ENE,67,0.0,1.0,50,0.00,,,0.00,Rainwise IP-100,2013-08-24 02:07:00,
2013-08-23 21:12:00,84.1,63.0,28.54,ENE,67,1.2,2.0,50,0.00,,,0.00,Rainwise IP-100,2013-08-24 02:12:00,
2013-08-23 21:17:00,84.1,63.0,28.54,ENE,67,0.0,1.0,49,0.00,,,0.00,Rainwise IP-100,2013-08-24 02:17:00,
2013-08-23 21:22:00,84.1,63.0,28.54,ENE,67,1.4,1.4,49,0.00,,,0.00,Rainwise IP-100,2013-08-24 02:22:00,
2013-08-23 21:27:00,84.0,63.0,28.54,ENE,67,2.1,2.1,49,0.00,,,0.00,Rainwise IP-100,2013-08-24 02:27:00,
2013-08-23 21:32:00,83.7,63.0,28.54,ENE,67,1.2,2.0,50,0.00,,,0.00,Rainwise IP-100,2013-08-24 02:32:00,
2013-08-23 21:37:00,83.4,63.0,28.54,ENE,67,0.0,3.0,50,0.00,,,0.00,Rainwise IP-100,2013-08-24 02:37:00,
2013-08-23 21:42:00,83.1,62.0,28.54,East,90,1.2,3.0,50,0.00,,,0.00,Rainwise IP-100,2013-08-24 02:42:00,
2013-08-23 21:47:00,83.1,63.0,28.54,East,90,1.4,2.0,51,0.00,,,0.00,Rainwise IP-100,2013-08-24 02:47:00,
2013-08-23 21:52:00,83.2,63.0,28.55,East,90,1.4,2.0,51,0.00,,,0.00,Rainwise IP-100,2013-08-24 02:52:00,
2013-08-23 21:57:00,83.3,63.0,28.54,East,90,1.4,2.0,51,0.00,,,0.00,Rainwise IP-100,2013-08-24 02:57:00,
2013-08-23 22:02:00,83.2,63.0,28.55,East,90,0.0,2.0,51,0.00,,,0.00,Rainwise IP-100,2013-08-24 03:02:00,
2013-08-23 22:07:00,83.0,63.0,28.55,East,90,0.0,1.0,51,0.00,,,0.00,Rainwise IP-100,2013-08-24 03:07:00,
2013-08-23 22:12:00,82.8,63.0,28.55,East,90,1.4,2.0,51,0.00,,,0.00,Rainwise IP-100,2013-08-24 03:12:00,
2013-08-23 22:17:00,82.8,63.0,28.55,East,90,0.0,2.0,51,0.00,,,0.00,Rainwise IP-100,2013-08-24 03:17:00,
2013-08-23 22:22:00,82.4,62.0,28.55,East,90,0.0,2.0,51,0.00,,,0.00,Rainwise IP-100,2013-08-24 03:22:00,
2013-08-23 22:27:00,82.0,62.0,28.56,East,90,0.0,2.0,52,0.00,,,0.00,Rainwise IP-100,2013-08-24 03:27:00,
2013-08-23 22:32:00,81.9,62.0,28.56,East,90,1.4,1.4,52,0.00,,,0.00,Rainwise IP-100,2013-08-24 03:32:00,
2013-08-23 22:37:00,81.9,62.0,28.56,East,90,1.2,2.0,52,0.00,,,0.00,Rainwise IP-100,2013-08-24 03:37:00,
2013-08-23 22:42:00,82.1,62.0,28.56,ESE,112,1.9,2.0,52,0.00,,,0.00,Rainwise IP-100,2013-08-24 03:42:00,
2013-08-23 22:47:00,82.3,63.0,28.56,East,90,1.2,3.0,52,0.00,,,0.00,Rainwise IP-100,2013-08-24 03:47:00,
2013-08-23 22:52:00,82.4,63.0,28.56,East,90,3.3,3.3,52,0.00,,,0.00,Rainwise IP-100,2013-08-24 03:52:00,
2013-08-23 22:57:00,82.4,62.0,28.55,ESE,112,2.8,5.0,51,0.00,,,0.00,Rainwise IP-100,2013-08-24 03:57:00,
2013-08-23 23:01:00,82.5,62.0,28.56,ESE,112,1.4,5.0,51,0.00,,,0.00,Rainwise IP-100,2013-08-24 04:01:00,
2013-08-23 23:02:00,82.5,62.0,28.56,ESE,112,1.2,4.0,51,0.00,,,0.00,Rainwise IP-100,2013-08-24 04:02:00,
2013-08-23 23:07:00,82.4,62.0,28.56,ENE,67,1.6,3.0,51,0.00,,,0.00,Rainwise IP-100,2013-08-24 04:07:00,
2013-08-23 23:12:00,82.0,62.0,28.56,ENE,67,2.1,2.1,51,0.00,,,0.00,Rainwise IP-100,2013-08-24 04:12:00,
2013-08-23 23:17:00,81.5,62.0,28.56,ENE,67,2.1,3.0,52,0.00,,,0.00,Rainwise IP-100,2013-08-24 04:17:00,
2013-08-23 23:22:00,81.1,62.0,28.56,ENE,67,1.4,2.0,52,0.00,,,0.00,Rainwise IP-100,2013-08-24 04:22:00,
2013-08-23 23:27:00,80.7,62.0,28.56,ENE,67,1.6,2.0,53,0.00,,,0.00,Rainwise IP-100,2013-08-24 04:27:00,
2013-08-23 23:32:00,80.4,62.0,28.56,ENE,67,2.1,3.0,54,0.00,,,0.00,Rainwise IP-100,2013-08-24 04:32:00,
2013-08-23 23:37:00,80.1,62.0,28.56,ENE,67,1.4,2.0,55,0.00,,,0.00,Rainwise IP-100,2013-08-24 04:37:00,
2013-08-23 23:42:00,79.7,62.0,28.57,ENE,67,1.6,3.0,56,0.00,,,0.00,Rainwise IP-100,2013-08-24 04:42:00,
2013-08-23 23:47:00,79.3,62.0,28.57,ENE,67,0.0,3.0,56,0.00,,,0.00,Rainwise IP-100,2013-08-24 04:47:00,
2013-08-23 23:52:00,78.9,62.0,28.57,ENE,67,0.0,2.0,57,0.00,,,0.00,Rainwise IP-100,2013-08-24 04:52:00,
2013-08-23 23:57:00,78.6,62.0,28.57,ENE,67,0.0,1.0,58,0.00,,,0.00,Rainwise IP-100,2013-08-24 04:57:00,